Terminal Aerodrome Forecast
Issued by NWS

Home | Current Version | Previous Version | Text Only | Print | Product List | Glossary On
Versions: 1 2 3 4 5 6 7 8 9 10 11 12 13 14 15 16 17 18 19 20 21 22 23 24 25 26
000
FTUS45 KRIW 231122
TAFPNA
TAF
KPNA 231122Z 2312/2412 VRB05KT P6SM SCT090 BKN200
     FM231800 24011KT P6SM BKN080
     FM232200 28012G19KT P6SM VCTS SCT030 BKN050CB
     FM240130 31008KT P6SM SCT080
     FM240900 29006KT P6SM VCSH SCT035 BKN060
      AMD LTD TO CLD VIS AND WIND=

USA.gov is the U.S. government's official web portal to all federal, state and local government web resources and services.